Tracking 25703 objects as of 2-Jul-2022
HD Live streaming from Space Station
objects crossing your sky now

OPS 5805

Track OPS 5805 now!
OPS 5805 is classified as:


NORAD ID: 12093
Int'l Code: 1980-100A
Perigee: 1,537.8 km
Apogee: 38,777.6 km
Inclination: 64.1 °
Period: 716.7 minutes
Semi major axis: 26528 km
RCS: Unknown
Launch date: December 13, 1980
Source: United States (US)
Launch site: AIR FORCE WESTERN TEST RANGE (AFWTR)
aabbcc
Your satellite tracking list
Your tracking list is empty




NASA's NSSDC Master Catalog

Two Line Element Set (TLE):
1 12093U 80100A   22180.12445231  .00001079  00000-0  00000-0 0  9996
2 12093  64.1466 353.3416 7018771 276.6218  14.5094  2.00922390 23085
Source of the keplerian elements: AFSPC